Regional Weather Roundup
Issued by NWS

Home | Current Version | Previous Version | Text Only | Print | Product List | Glossary Off
Versions: 1 2 3 4 5 6 7 8 9 10 11 12 13 14 15 16 17 18 19 20 21 22 23 24 25 26 27 28 29 30 31 32 33 34 35 36 37 38 39 40 41 42 43 44 45 46 47 48 49 50

000
ASUS43 KMKX 061400
RWRWI

WISCONSIN REGIONAL WEATHER ROUNDUP
NATIONAL WEATHER SERVICE MILWAUKEE/SULLIVAN WI
900 AM CDT MON JUL 06 2015

NOTE: "FAIR" INDICATES FEW OR NO CLOUDS BELOW 12,000 FEET WITH NO
SIGNIFICANT WEATHER AND/OR OBSTRUCTIONS TO VISIBILITY.

WIZ001-002-006>008-014>016-023>028-061500-
NORTHWEST WISCONSIN

CITY           SKY/WX    TMP DP  RH WIND       PRES   REMARKS
SUPERIOR ARPT  RAIN      61  60  95 NE9       29.87R
ASHLAND        LGT RAIN  68  67  96 CALM      29.84F
HAYWARD        RAIN      67  66  97 NE7       29.82F FOG
SIREN          DRIZZLE   68  67  96 NE6       29.81F
CUMBERLAND     LGT RAIN  64  64 100 E5        29.80F
RICE LAKE      DRIZZLE   67  66  95 SE6       29.81F
CHETEK         CLOUDY    67  66  99 SE7       29.81F
LADYSMITH      LGT RAIN  68  66  95 SE6       29.84F
EAU CLAIRE     CLOUDY    70  67  90 SE5       29.80F FOG
MENOMONIE      LGT RAIN  69  69  99 E5        29.81F
NEW RICHMOND   LGT RAIN  68  67  99 SE6       29.79F
OSCEOLA        RAIN      68  68 100 E5        29.81F
$$

WIZ003>005-009-010-017-018-061500-
NORTH CENTRAL WISCONSIN

CITY           SKY/WX    TMP DP  RH WIND       PRES   REMARKS
MANITOWISH WTR RAIN      66  66 100 S3        29.87R
ARBOR VITAE    LGT RAIN  67  65  94 S3        29.88R
WOODRUFF       LGT RAIN  67  65  94 S3        29.88R
RHINELANDER    LGT RAIN  67  65  93 CALM      29.89S FOG
EAGLE RIVER    RAIN      66  66 100 CALM      29.88R
LAND O LAKES   RAIN      68  66  92 CALM      29.89S
PHILLIPS       DRIZZLE   66  66 100 SE7       29.84F
TOMAHAWK       RAIN      65  64  95 CALM      29.89S
MEDFORD        LGT RAIN  66  66  98 CALM      29.87F
MERRILL        RAIN      66  66 100 CALM      29.88F
$$

WIZ029-030-035-036-043>047-061500-
CENTRAL WISCONSIN

CITY           SKY/WX    TMP DP  RH WIND       PRES   REMARKS
WAUSAU         CLOUDY    69  66  90 SW6       29.86S FOG
MOSINEE        CLOUDY    66  66 100 S8        29.88S FOG
MARSHFIELD     CLOUDY    70  65  84 S8        29.86S HAZE
STEVENS POINT  HVY RAIN  67  65  93 SW6       29.88R
WAUPACA        CLOUDY    73  68  85 S7        29.87F HAZE
WAUTOMA        NOT AVBL
WISC RAPIDS    LGT RAIN  69  66  90 SW6       29.88S FOG
CAMP DOUGLAS   LGT RAIN  72  72 100 SW3       29.87R FOG
$$

WIZ011>013-019>022-031-037>040-048>050-061500-
NORTHEAST WISCONSIN

CITY           SKY/WX    TMP DP  RH WIND       PRES   REMARKS
ANTIGO         CLOUDY    65  64  96 SW5       29.90S FOG
SHAWANO        CLOUDY    72  65  79 S5        29.88S
OCONTO         CLOUDY    71  68  92 S6        29.87F
STURGEON BAY   CLOUDY    68  61  77 S13       29.92S
GREEN BAY      CLOUDY    73  66  78 S10       29.89F HAZE
MANITOWOC      NOT AVBL
APPLETON       PTSUNNY   72  64  78 S10       29.89F HAZE
CLINTONVILLE   CLOUDY    70  64  83 S8        29.87F HAZE
OSHKOSH        CLOUDY    73  66  78 S16       29.88F HAZE
$$

WIZ032>034-041-042-053>061-061500-
SOUTHWEST WISCONSIN

CITY           SKY/WX    TMP DP  RH WIND       PRES   REMARKS
LA CROSSE      CLOUDY    74  70  87 S8        29.84F FOG
SPARTA         LGT RAIN  69  68  94 CALM      29.87R
VIROQUA        CLOUDY    70  70 100 SW16      29.90R
BOSCOBEL       HVY RAIN  72  69  90 VRB7      29.90R VSB 1/2
PRAIRIE DU CHI CLOUDY    73  67  79 SW5       29.89R HAZE
PLATTEVILLE    CLOUDY    73  70  91 S10       29.92R
$$

WIZ056-057-062-063-064-067-068-061500-
SOUTH CENTRAL WISCONSIN

CITY           SKY/WX    TMP DP  RH WIND       PRES   REMARKS
REEDSBURG      CLOUDY    72  68  87 S7        29.87R
BARABOO/DELLS  CLOUDY    73  65  77 S12       29.88S
LONE ROCK      CLOUDY    73  66  78 SW8       29.89S HAZE
MINERAL POINT  CLOUDY    72  68  88 S9        29.91S FOG
MADISON        CLOUDY    74  66  76 S10       29.90R
MIDDLETON      CLOUDY    73  67  80 S13       29.91R
WATERTOWN      CLOUDY    71  71 100 S6        29.91F FOG
MONROE         CLOUDY    70  68  94 S14G22    29.93R FOG
JANESVILLE     CLOUDY    75  66  73 S9        29.93R
$$

WIZ051-052-058>065-066-070>072-061500-
SOUTHEAST WISCONSIN

CITY           SKY/WX    TMP DP  RH WIND       PRES   REMARKS
MILWAUKEE      PTSUNNY   74  65  73 S9        29.94F
WAUKESHA       SUNNY     70  64  83 S7        29.95F
MILWAUKEE/TIMM SUNNY     73  63  68 S9G17     29.95F
RACINE         PTSUNNY   74  64  71 S9        29.97F HAZE
BURLINGTON     PTSUNNY   71  65  82 S6        29.95F
KENOSHA        PTSUNNY   75  66  73 S9        29.97S HAZE
FOND DU LAC    CLOUDY    75  67  76 S13       29.90F
SHEBOYGAN      CLOUDY    70  64  81 S8        29.93S HAZE
WEST BEND      CLOUDY    70  63  78 S8        29.94F
JUNEAU         CLOUDY    71  66  84 S10       29.92F HAZE
$$

LSZ147-162-061500-
LAKE SUPERIOR

STATION/POSITION TIME  TEMP    WIND        PRES    WAVE
                       AIR SEA DIR/SP/G            HT/PER
                 (UTC) (F)     (DEG/KT/KT) (MB)    (FT/S)
W MID LAKE BUOY  1250   51 39  330/ 10/ 10 1011.2R   1
DEVILS ISLAND    1300   61     350/ 14/ 15 1011.3R
PORT WING        1300   63      30/  8/ 14 1011.2
SAXON HARBOR     1300   67        CALM     1010.2F
$$

LMZ867-665-643>646-061500-
LAKE MICHIGAN

STATION/POSITION TIME  TEMP    WIND        PRES    WAVE
                       AIR SEA DIR/SP/G            HT/PER
                 (UTC) (F)     (DEG/KT/KT) (MB)    (FT/S)
CHAMBERS ISLAND  1300   70     150/  6/ 13 1012.2F
S GREEN BAY BUOY 1300   70 69  170/ 12/ 14 1013.5
N MID LAKE BUOY  1250   58 55  190/ 16/ 17 1013.2F   2/ 4
NORTHPORT PIER   1300   65     140/  9/ 11 1012.5F
SISTER BAY       1214   67     180/ 14/ 17   N/A
ALGOMA LAKESHORE 1211             CALM       N/A
KEWAUNEE LAKESHO 1300   60     190/ 12/ 13 1012.6F
SHEBOYGAN LAKESH 1300   61     170/ 12/ 12 1013.9F
PORT WASHINGTON  1300   65     190/  5/  7 1014.6F
ATWATER BUOY     1300   63 59  150/ 10/ 12 1015.6F
MILWAUKEE LAKESH 1300   64     160/  9/ 10   N/A
KENOSHA   LAKESH 1300   64     170/ 10/ 13 1014.6F
$$

TC  - TEMPERATURE IN CELSIUS
VSB - VISIBILITY IN STATUTE MILES
WCI - WIND CHILL INDEX
HX  - HEAT INDEX



USA.gov is the U.S. government's official web portal to all federal, state and local government web resources and services.